Tenerife, El Salvador

5:32 AM WEST en Septiembre 20, 2018 (GMT +0100)
Tenerife

Tiempo Historia de GCXO - Junio, 2018

Change the Weather History Date:

Miércoles, Junio 13, 2018

  Actual Average Record
Temperature  
Temperatura media 62 ° F -  
Temperatura máxima 68 ° F 70 ° F 75 ° F (1997)
Temperatura mínima 57 ° F 57 ° F 53 ° F (1998)
Degree Days  
Grados día de calefacción 2    
Growing Degree Days 12 (Base 50)    
Moisture  
Punto de rocío 56 ° F    
Average Humidity 84    
Maximum Humidity 100    
Minimum Humidity 56    
Precipitación  
Precipitación 0.00 pul - - ()
Presión al nivel del mar  
Presión al nivel del mar 30.22 pul    
Viento  
Velocidad del viento 17 mph ()    
Velocidad máxima del viento 24 mph    
Max Gust Speed 34 mph    
Visibilidad 8.0 Millas    
Eventos Niebla , Lluvia    
Averages and records for this station are not official NWS values.
T = Trace of Precipitation, MM = Missing Value Source: Averaged Metar Reports

Daily Weather History Graph

Daily Weather History Graph

Search for Another Location

Airport or City:

Astronomía

Jun. 13, 2018 Salida Puesta
Hora real 7:07 AM WEST 9:03 PM WEST
Crepúsculo civil 6:40 AM WEST 9:30 PM WEST
Crepúsculo náutico 6:07 AM WEST 10:02 PM WEST
Crepúsculo astronómico 5:33 AM WEST 10:37 PM WEST
Luna 6:51 AM WEST (6/13) 8:50 PM WEST (6/13)
Horas de luz 14h 49m
Horas de luz
13h 56m
Creciente menguante, 0% of the Moon is Illuminated
Jun 13
Creciente menguante
Jun 13
Nueva
Jun 20
Cuarto creciente
Jun 28
Luna llena
Jul 6
Cuarto menguante

Hourly Weather History & Observations

Hora (WEST) Temp. Punto de rocío Humedad Presión Visibilidad Wind Dir Velocidad del viento Velocidad de ráfagas Precip Eventos Condiciones
12:00 AM 60.8 ° F 59.0 ° F 94% 30.27 pul 6.2 mi NO 19.6 mph - N/A   Muy nublado
12:30 AM 59.0 ° F 59.0 ° F 100% 30.27 pul 6.2 mi NO 19.6 mph - N/A   Muy nublado
1:00 AM 59 ° F 57 ° F 92% 30.24 pul 19 mi NO 18.4 mph - -  
1:00 AM 59.0 ° F 59.0 ° F 100% 30.27 pul 6.2 mi NO 19.6 mph - N/A   Muy nublado
1:30 AM 59.0 ° F 59.0 ° F 100% 30.27 pul 6.2 mi ONO 20.7 mph - N/A   Nublado
2:00 AM 59.0 ° F 59.0 ° F 100% 30.24 pul 5.0 mi NO 23.0 mph - N/A Niebla Bancos de niebla
2:30 AM 59.0 ° F 59.0 ° F 100% 30.24 pul 6.2 mi ONO 24.2 mph - N/A   Muy nublado
3:00 AM 59.0 ° F 59.0 ° F 100% 30.21 pul 6.2 mi NO 24.2 mph - N/A   Muy nublado
3:30 AM 59.0 ° F 59.0 ° F 100% 30.21 pul 6.2 mi NO 23.0 mph 34.5 mph N/A   Nublado
4:00 AM 58 ° F 57 ° F 94% 30.19 pul 19 mi ONO 23.0 mph - -  
4:00 AM 59.0 ° F 57.2 ° F 94% 30.21 pul 6.2 mi ONO 21.9 mph - N/A   Nublado
4:30 AM 59.0 ° F 57.2 ° F 94% 30.21 pul 6.2 mi NO 21.9 mph - N/A   Nublado
5:00 AM 59.0 ° F 57.2 ° F 94% 30.21 pul 6.2 mi NO 19.6 mph - N/A   Muy nublado
5:30 AM 59.0 ° F 57.2 ° F 94% 30.21 pul 6.2 mi NO 18.4 mph - N/A   Muy nublado
6:00 AM 59.0 ° F 57.2 ° F 94% 30.21 pul 6.2 mi NO 16.1 mph - N/A   Muy nublado
6:30 AM 59.0 ° F 57.2 ° F 94% 30.21 pul 6.2 mi NO 15.0 mph - N/A   Muy nublado
7:00 AM 58 ° F 56 ° F 89% 30.20 pul 19 mi ONO 18.4 mph - -   Muy nublado
7:30 AM 59.0 ° F 55.4 ° F 88% 30.21 pul 6.2 mi NO 16.1 mph - N/A   Muy nublado
8:00 AM 59.0 ° F 57.2 ° F 94% 30.21 pul 6.2 mi NO 16.1 mph - N/A Niebla Bancos de niebla
8:30 AM 59.0 ° F 55.4 ° F 88% 30.21 pul 6.2 mi NNO 16.1 mph - N/A   Muy nublado
9:00 AM 59.0 ° F 53.6 ° F 82% 30.24 pul 6.2 mi NO 17.3 mph - N/A   Muy nublado
9:30 AM 60.8 ° F 53.6 ° F 77% 30.24 pul 6.2 mi NNO 16.1 mph - N/A   Muy nublado
10:00 AM 60 ° F 54 ° F 75% 30.21 pul 19 mi ONO 19.6 mph - -   Muy nublado
10:00 AM 60.8 ° F 55.4 ° F 82% 30.24 pul 6.2 mi NO 18.4 mph - N/A   Muy nublado
10:30 AM 60.8 ° F 55.4 ° F 82% 30.24 pul 6.2 mi NO 18.4 mph - N/A   Muy nublado
11:00 AM 60.8 ° F 51.8 ° F 72% 30.24 pul 6.2 mi NNO 13.8 mph - N/A   Muy nublado
11:30 AM 66.2 ° F 55.4 ° F 68% 30.24 pul 6.2 mi NNO 15.0 mph - N/A   Muy nublado
12:00 PM 62.6 ° F 55.4 ° F 77% 30.24 pul 6.2 mi NO 13.8 mph - N/A   Muy nublado
12:30 PM 64.4 ° F 51.8 ° F 64% 30.24 pul 6.2 mi Norte 13.8 mph - N/A   Muy nublado
1:00 PM 65 ° F 53 ° F 56% 30.20 pul 19 mi NO 13.8 mph - -   Muy nublado
1:00 PM 64.4 ° F 51.8 ° F 64% 30.24 pul 6.2 mi NO 13.8 mph - N/A   Muy nublado
1:30 PM 64.4 ° F 53.6 ° F 68% 30.24 pul 6.2 mi NO 15.0 mph - N/A   Muy nublado
2:00 PM 66.2 ° F 55.4 ° F 68% 30.24 pul 6.2 mi NNO 10.4 mph - N/A   Muy nublado
2:30 PM 62.6 ° F 55.4 ° F 77% 30.24 pul 6.2 mi NO 13.8 mph - N/A   Muy nublado
3:00 PM 68.0 ° F 55.4 ° F 64% 30.24 pul 6.2 mi NNO 11.5 mph - N/A   Muy nublado
3:30 PM 64.4 ° F 53.6 ° F 68% 30.24 pul 6.2 mi NO 15.0 mph - N/A   Muy nublado
4:00 PM 64.4 ° F 55.4 ° F 73% 30.21 pul 6.2 mi NNO 12.7 mph - N/A   Muy nublado
5:00 PM 62.6 ° F 55.4 ° F 77% 30.21 pul 6.2 mi NO 16.1 mph - N/A   Muy nublado
5:30 PM 60.8 ° F 55.4 ° F 82% 30.21 pul 6.2 mi NO 18.4 mph - N/A Lluvia Lluvia débil
6:00 PM 62.6 ° F 55.4 ° F 77% 30.21 pul 6.2 mi NO 17.3 mph - N/A   Muy nublado
6:30 PM 60.8 ° F 55.4 ° F 82% 30.21 pul 6.2 mi NO 17.3 mph 31.1 mph N/A   Muy nublado
7:00 PM 61 ° F 56 ° F 77% 30.16 pul 19 mi NO 20.7 mph - -   Muy nublado
7:30 PM 59.0 ° F 53.6 ° F 82% 30.18 pul 6.2 mi NO 21.9 mph - N/A   Nubes dispersas
8:00 PM 59.0 ° F 55.4 ° F 88% 30.18 pul 6.2 mi NO 20.7 mph - N/A   Muy nublado
8:30 PM 59.0 ° F 55.4 ° F 88% 30.21 pul 6.2 mi NO 19.6 mph - N/A   Muy nublado
9:00 PM 59.0 ° F 55.4 ° F 88% 30.21 pul 6.2 mi NO 19.6 mph - N/A   Muy nublado
10:00 PM 58 ° F 56 ° F 89% 30.19 pul 19 mi NO 20.7 mph - -  
10:00 PM 59.0 ° F 55.4 ° F 88% 30.21 pul 6.2 mi NO 19.6 mph - N/A   Muy nublado
11:00 PM 59.0 ° F 55.4 ° F 88% 30.21 pul 6.2 mi NO 19.6 mph - N/A   Nubes dispersas
11:30 PM 59.0 ° F 57.2 ° F 94% 30.21 pul 6.2 mi NO 19.6 mph - N/A   Nublado